Погода Лынтупы

Погода Лынтупы : погода сейчас, прогноз погоды и архив. Всё, что Вы хотите узнать о погоде Лынтупы!

Хотите узнать прогноз погоды Лынтупы? Тогда Вам сюда: Погода Лынтупы

Поиск расширенной информации на нашем сайте:

Другие новости

Новости СМИ2

Главная страница сайта

Новости сайта

03.07.2017

Напоминаем, что на нашем специализированном сайте Метеоцентр.Азия вы можете получить высокодетализированные автоматические прогнозы погоды по пунктам России, СНГ и мира в авиационном формате (включающие направление и скорость ветра, видимость, явления погоды, количество и форму облачности, нижнюю и верхнюю границу облачности).

Рекомендуем: Аренда опалубки колонн стойки для опалубки.

Погода Лынтупы - сегодня

Время (UTC), дата Ветер
(°,м/с) 
Видим.   Явления Облачность Т
(°С)
Тd
(°С)
f(%) Тe
(°С)
Pmin
(гПа)
dP
(гПа)
Po
(мм)
O2
(г/м3)
Тmin Tmax R s Состояние
почвы
18 17.07.18 060 (СВ) 14000 м  {гроза, ливн. осадки}  10/1 1000 м кучево-дожд., средняя, верхняя 
[Cb cap|Ac As|Ci sp]
+22.3 +20.3 88 +42  1005.8  0.2  736  269    +27.4  11     
21 17.07.18 040 (СВ) 10 км    9/0 средняя 
[Ac trans]
+21.8 +18.3 81 +37  1006  0.1  736  271           
00 18.07.18 050 (СВ) 10 км    1/0 верхняя 
[Ci sp]
+20.1 +16.8 81 +33  1006.1  -0.1  736  273           
09 18.07.18 050 (СВ) 23000 м    4/4 600 м 
[Cu Sc]
+25.3 +17.8 63 +40  1006  737  268           
15 18.07.18 030 (СВ) 21000 м    4/4 1000 м 
[Cu Sc]
+27.3 +16.5 52 +39  1005.4  -0.3  736  266           
18 18.07.18 040 (СВ) 20000 м    3/3 1000 м 
[Sc]
+24.5 +16.7 62 +37  1005.6  736  269    +27.5       
21 18.07.18 040 (СВ) 10 км    ясно 
+20.4 +14 67 +28  1006.6  0.6  737  273           
00 19.07.18 020 (С) 10 км    ясно 
+17.1 +15.1 88 +28  1006.8  737  276           
06 19.07.18 340 (С) 22000 м    9/8 660 м кучево-дожд., верхняя 
[Cb cap|Ci sp]
+19.3 +16.1 82 +32  1006.2  0.5  736  274  +15         
03 20.07.18 020 (С) 7000 м  дымка  6/0 средняя, верхняя 
[Ac trans|Ci sp]
+16.7 +16.2 97 +29  1006.6  0.2  737  276      0.5     
06 20.07.18 320 (СЗ) 15000 м    8/1 1000 м средняя, верхняя 
[Cu hum|Ac trans|Ci fib]
+20 +17.7 87 +34  1006.4  737  272  +16.6    0.5     
09 20.07.18 340 (С) 14000 м    8/8 800 м 
[Cu med, cong]
+22.6 +16.5 68 +35  1006.1  -0.1  737  270           
12 20.07.18 320 (СЗ) 16000 м    6/4 600 м верхняя 
[Cu med, cong|Ci fib]
+25.4 +16.9 59 +38  1005.4  -0.4  736  268           
18 20.07.18 320 (СЗ) 13000 м  {ливн. осадки}  4/0 средняя 
[Ac trans]
+22.7 +18.4 77 +38  1005.7  0.2  736  270    +26.8  0.0     
21 20.07.18 тихо ()   10 км    ясно 
+18.9 +17.1 89 +32  1006.1  736  274           
00 21.07.18 тихо ()   10 км    4/0 верхняя 
[Ci fib]
+17.3 +16.1 93 +28  1006.3  0.1  736  275           
03 21.07.18 тихо ()   12000 м    6/0 средняя, верхняя 
[Ac trans|Ci fib]
+16.7 +15.9 95 +27  1006.5  0.2  737  276           
06 21.07.18 270 (З) 16000 м    9/0 верхняя 
[Ci fib]
+19.6 +16.8 84 +33  1007.2  0.8  737  273  +16.7         
09 21.07.18 340 (С) 19000 м    9/4 1000 м верхняя 
[Cu hum|Ci sp]
+23.9 +16.9 65 +37  1007.8  0.9  738  270           
12 21.07.18 290 (З) 21000 м    9/4 600 м верхняя 
[Cu med, cong|Ci sp]
+25.2 +14.5 51 +33  1007.5  -0.2  738  269           
15 21.07.18 280 (З) 20000 м    10/3 1000 м верхняя 
[Cu med, cong|Ci sp]
+26.3 +14.9 50 +35  1007.3  -0.1  738  268           
18 21.07.18 тихо ()   16000 м    10/0 верхняя 
[Cs]
+24.6 +15.9 58 +35  1007.5  0.1  738  269    +26.4       
21 21.07.18 260 (З) 10 км    1/1 1000 м 
[Sc]
+18.9 +16.6 87 +32  1008.6  0.6  738  274           
00 22.07.18 тихо ()   10 км    1/0 верхняя 
[Ci sp]
+18.9 +15.3 80 +29  1008.6  738  275           
03 22.07.18 тихо ()   17000 м    9/1 1000 м верхняя 
[Sc|Ci fib]
+17.2 +15 87 +26  1009  0.2  738  277           
Время (UTC), дата Ветер
(°,м/с) 
Видим.   Явления Облачность Т
(°С)
Тd
(°С)
f(%) Тe
(°С)
Pmin
(гПа)
dP
(гПа)
Po
(мм)
O2
(г/м3)
Тmin Tmax R s Состояние
почвы

Для получения пояснительной информации подведите курсор к названию столбца.

ПОГОДА Лынтупы - архив

Всё, что Вы хотите узнать о погоде Лынтупы - удобно и подробно!

Выберите нужную дату (начиная с 1 января 2015* года) и нажмите кнопку "Найти".
Будут отображены архивные сводки погоды по пункту Лынтупы, начиная с указанной даты.


Отображать данные в формате CSV (для использования в таблицах Excel)


Внимание! Наш архив погоды предназначен исключительно для личного некоммерческого использования в познавательных целях. Если Вам необходимы официальные справки о состоянии погоды (для производственных, юридических, коммерческих и т.п. целей), обращайтесь в органы Росгидромета.

*Примечание: данная дата относится к архиву по метеостанциям СССР (Россия, СНГ, Балтия).
Архив по метеостанциям Зарубежной Европы и Азии (кроме Китая) хранится 10 дней, по другим регионам земного шара (Китай, Африка, Америка, Австралия, Океания) - 1 день.

Лынтупы - район местоположения метеостанции


Название, широта, долгота, высота метеостанции:
Лынтупы 55.1°ш. 26.3°д. 212 м над ур. моря [Беларусь]

Дополнительная информация

В oтличие oт бoльшинства пoгoдных сайтoв мы публикуем пoдрoбную метеoинфoрмацию в детальнoм прoфессиoнальнoм фoрмате.

Характеристики температуры и влажнoсти вoздуха измеряются на высoте 2 м в тени вдали oт зданий и деревьев.
Скoрoсть ветра измеряется на высoте 10 м (на урoвне рoста челoвека скoрoсть ветра ниже в 1.5-2 раза). Если метеoстанция нахoдится в гoрoде или в лесу, тo скoрoсть ветра занижена на 2-4 м/с пo сравнению с oткрытым местoм. Скoрoсть ветра над акватoриями крупных рек и oзёр, а также на вершинах хoлмoв на 2-5 м/с выше, чем в oбычных услoвиях.
Атмoсфернoе давление в разных тoчках местнoсти мoжет значительнo oтличаться oт давления на метеoстанции, в зависимoсти oт услoвий рельефа (при пoдъёме на 10 м давление пoнижается примернo на 1 мм рт.ст.).